• In Portugal
  • List of Countries
  • For 7 days
  • Water Temperature
  • Satellite Maps
  • Weather Map
  • Weather Widgets
  • user-avatar
    Login

    Hourly Weather Altaj

    Today, 21 February, Wednesday

    Time Temperature Precipitation Wind Pressure Humidity
    00:00 -27°C° 0 mm 2 mps 564 mmHg 63%
    01:00 -27°C° 0 mm 2 mps 563 mmHg 62%
    02:00 -27°C° 0 mm 2 mps 563 mmHg 61%
    03:00 -27°C° 0 mm 2 mps 563 mmHg 60%
    04:00 -26°C° 0 mm 2 mps 562 mmHg 59%
    05:00 -26°C° 0 mm 2 mps 562 mmHg 58%
    06:00 -26°C° 0 mm 2 mps 562 mmHg 56%
    07:00 -25°C° 0 mm 2 mps 563 mmHg 56%
    08:00 -24°C° 0 mm 2 mps 563 mmHg 56%
    09:00 -21°C° 0 mm 2 mps 564 mmHg 56%
    10:00 -20°C° 0 mm 2 mps 564 mmHg 53%
    11:00 -19°C° 0 mm 2 mps 564 mmHg 49%
    12:00 -17°C° 0 mm 2 mps 564 mmHg 46%
    13:00 -17°C° 0 mm 2 mps 564 mmHg 48%
    14:00 -17°C° 0 mm 2 mps 564 mmHg 51%
    15:00 -17°C° 0 mm 2 mps 563 mmHg 54%
    16:00 -18°C° 0 mm 2 mps 563 mmHg 50%
    17:00 -19°C° 0 mm 2 mps 562 mmHg 46%
    18:00 -21°C° 0 mm 2 mps 562 mmHg 42%
    19:00 -21°C° 0 mm 2 mps 562 mmHg 40%
    20:00 -21°C° 0 mm 2 mps 562 mmHg 38%
    21:00 -21°C° 0 mm 2 mps 562 mmHg 36%
    22:00 -20°C° 0 mm 2 mps 561 mmHg 35%
    23:00 -20°C° 0 mm 2 mps 561 mmHg 35%

    Tomorrow, 22 February, Thursday

    Time Temperature Precipitation Wind Pressure Humidity
    00:00 -20°C° 0 mm 2 mps 561 mmHg 35%
    01:00 -20°C° 0 mm 2 mps 560 mmHg 35%
    02:00 -20°C° 0 mm 2 mps 560 mmHg 36%
    03:00 -20°C° 0 mm 2 mps 560 mmHg 36%
    04:00 -20°C° 0 mm 2 mps 559 mmHg 37%
    05:00 -19°C° 0 mm 2 mps 559 mmHg 37%
    06:00 -19°C° 0 mm 2 mps 559 mmHg 38%
    07:00 -18°C° 0 mm 2 mps 559 mmHg 41%
    08:00 -16°C° 0 mm 2 mps 560 mmHg 43%
    09:00 -15°C° 0 mm 2 mps 560 mmHg 46%
    10:00 -14°C° 0 mm 2 mps 561 mmHg 47%
    11:00 -12°C° 0 mm 2 mps 561 mmHg 47%
    12:00 -10°C° 0 mm 2 mps 561 mmHg 48%
    13:00 -10°C° 0 mm 2 mps 560 mmHg 48%
    14:00 -10°C° 0 mm 2 mps 560 mmHg 49%
    15:00 -10°C° 0 mm 2 mps 559 mmHg 49%
    16:00 -12°C° 0 mm 2 mps 559 mmHg 47%
    17:00 -13°C° 0 mm 2 mps 559 mmHg 44%
    18:00 -14°C° 0 mm 2 mps 558 mmHg 42%
    19:00 -15°C° 0 mm 2 mps 558 mmHg 42%
    20:00 -15°C° 0 mm 2 mps 559 mmHg 42%
    21:00 -16°C° 0 mm 2 mps 559 mmHg 42%
    22:00 -16°C° 0 mm 2 mps 559 mmHg 43%
    23:00 -16°C° 0 mm 2 mps 559 mmHg 45%

    Day after tomorrow, 23 February, Friday

    Time Temperature Precipitation Wind Pressure Humidity
    00:00 -17°C° 0 mm 2 mps 559 mmHg 47%
    01:00 -17°C° 0 mm 2 mps 559 mmHg 49%
    02:00 -15°C° 0 mm 1 mps 559 mmHg 50%
    03:00 -16°C° 0 mm 1 mps 559 mmHg 52%
    04:00 -16°C° 0 mm 1 mps 559 mmHg 54%
    05:00 -16°C° 0 mm 1 mps 559 mmHg 55%
    06:00 -16°C° 0 mm 1 mps 559 mmHg 57%
    07:00 -15°C° 0 mm 1 mps 560 mmHg 59%
    08:00 -14°C° 0 mm 1 mps 561 mmHg 60%
    09:00 -13°C° 0 mm 1 mps 562 mmHg 62%
    10:00 -12°C° 0 mm 1 mps 562 mmHg 60%
    11:00 -11°C° 0 mm 1 mps 562 mmHg 57%
    12:00 -10°C° 0 mm 1 mps 563 mmHg 55%
    13:00 -10°C° 0 mm 1 mps 562 mmHg 59%
    14:00 -10°C° 0 mm 1 mps 562 mmHg 62%
    15:00 -10°C° 0 mm 1 mps 562 mmHg 65%
    16:00 -11°C° 0 mm 1 mps 562 mmHg 65%
    17:00 -12°C° 0 mm 1 mps 562 mmHg 64%
    18:00 -14°C° 0 mm 1 mps 561 mmHg 64%
    19:00 -14°C° 0 mm 1 mps 562 mmHg 63%
    20:00 -16°C° 0 mm 2 mps 562 mmHg 62%
    21:00 -17°C° 0 mm 2 mps 562 mmHg 61%
    22:00 -17°C° 0 mm 2 mps 562 mmHg 60%
    23:00 -17°C° 0 mm 2 mps 562 mmHg 58%

    24 February, Saturday

    Time Temperature Precipitation Wind Pressure Humidity
    00:00 -17°C° 0 mm 2 mps 562 mmHg 57%
    01:00 -17°C° 0 mm 2 mps 561 mmHg 55%
    02:00 -17°C° 0 mm 2 mps 561 mmHg 54%
    03:00 -17°C° 0 mm 2 mps 561 mmHg 52%
    04:00 -17°C° 0 mm 2 mps 561 mmHg 49%
    05:00 -17°C° 0 mm 2 mps 561 mmHg 47%
    06:00 -17°C° 0 mm 2 mps 561 mmHg 45%
    07:00 -16°C° 0 mm 2 mps 562 mmHg 45%
    08:00 -15°C° 0 mm 2 mps 563 mmHg 46%
    09:00 -13°C° 0 mm 2 mps 563 mmHg 47%
    10:00 -12°C° 0 mm 2 mps 563 mmHg 48%
    11:00 -10°C° 0 mm 2 mps 564 mmHg 49%
    12:00 -9°C° 0 mm 3 mps 564 mmHg 50%
    13:00 -9°C° 0 mm 3 mps 563 mmHg 48%
    14:00 -9°C° 0 mm 3 mps 563 mmHg 47%
    15:00 -9°C° 0 mm 3 mps 563 mmHg 45%
    16:00 -12°C° 0 mm 3 mps 562 mmHg 43%
    17:00 -13°C° 0 mm 3 mps 562 mmHg 41%
    18:00 -14°C° 0 mm 3 mps 562 mmHg 39%
    19:00 -14°C° 0 mm 3 mps 561 mmHg 42%
    20:00 -14°C° 0 mm 3 mps 561 mmHg 44%
    21:00 -15°C° 0 mm 3 mps 561 mmHg 46%
    22:00 -15°C° 0 mm 3 mps 561 mmHg 49%
    23:00 -15°C° 0 mm 3 mps 561 mmHg 52%

    25 February, Sunday

    Time Temperature Precipitation Wind Pressure Humidity
    00:00 -14°C° 0 mm 2 mps 561 mmHg 55%
    01:00 -14°C° 0 mm 2 mps 560 mmHg 57%
    02:00 -14°C° 0 mm 2 mps 560 mmHg 58%
    03:00 -15°C° 0 mm 2 mps 560 mmHg 60%
    04:00 -15°C° 0 mm 2 mps 560 mmHg 60%
    05:00 -15°C° 0 mm 2 mps 560 mmHg 60%
    06:00 -17°C° 0 mm 3 mps 560 mmHg 61%
    07:00 -15°C° 0 mm 2 mps 561 mmHg 61%
    08:00 -14°C° 0 mm 2 mps 562 mmHg 61%
    09:00 -13°C° 0 mm 2 mps 562 mmHg 62%
    10:00 -12°C° 0 mm 2 mps 562 mmHg 59%
    11:00 -10°C° 0 mm 2 mps 563 mmHg 57%
    12:00 -8°C° 0 mm 2 mps 563 mmHg 54%
    13:00 -9°C° 0 mm 2 mps 563 mmHg 54%
    14:00 -9°C° 0 mm 2 mps 563 mmHg 54%
    15:00 -9°C° 0 mm 2 mps 563 mmHg 53%
    16:00 -10°C° 0 mm 2 mps 562 mmHg 50%
    17:00 -12°C° 0 mm 2 mps 562 mmHg 46%
    18:00 -14°C° 0 mm 2 mps 562 mmHg 42%
    19:00 -14°C° 0 mm 2 mps 562 mmHg 42%
    20:00 -14°C° 0 mm 2 mps 562 mmHg 41%
    21:00 -14°C° 0 mm 2 mps 562 mmHg 40%
    22:00 -14°C° 0 mm 2 mps 562 mmHg 40%
    23:00 -14°C° 0 mm 2 mps 562 mmHg 40%

    26 February, Monday

    Time Temperature Precipitation Wind Pressure Humidity
    00:00 -15°C° 0 mm 2 mps 562 mmHg 40%
    01:00 -15°C° 0 mm 2 mps 562 mmHg 40%
    02:00 -15°C° 0 mm 2 mps 561 mmHg 41%
    03:00 -12°C° 0 mm 1 mps 561 mmHg 41%
    04:00 -12°C° 0 mm 1 mps 561 mmHg 41%
    05:00 -13°C° 0 mm 1 mps 561 mmHg 40%
    06:00 -13°C° 0 mm 1 mps 561 mmHg 40%
    07:00 -11°C° 0 mm 1 mps 562 mmHg 43%
    08:00 -10°C° 0 mm 1 mps 562 mmHg 45%
    09:00 -9°C° 0 mm 1 mps 563 mmHg 47%
    10:00 -8°C° 0 mm 1 mps 563 mmHg 48%
    11:00 -7°C° 0 mm 1 mps 563 mmHg 49%
    12:00 -6°C° 0 mm 1 mps 563 mmHg 50%
    13:00 -6°C° 0 mm 1 mps 563 mmHg 51%
    14:00 -7°C° 0 mm 1 mps 562 mmHg 51%
    15:00 -7°C° 0 mm 1 mps 562 mmHg 52%
    16:00 -8°C° 0 mm 1 mps 561 mmHg 51%
    17:00 -10°C° 0 mm 1 mps 561 mmHg 50%
    18:00 -11°C° 0 mm 1 mps 560 mmHg 49%
    19:00 -14°C° 0 mm 2 mps 560 mmHg 48%
    20:00 -14°C° 0 mm 2 mps 560 mmHg 48%
    21:00 -14°C° 0 mm 2 mps 560 mmHg 47%
    22:00 -15°C° 0 mm 2 mps 560 mmHg 48%
    23:00 -15°C° 0 mm 2 mps 560 mmHg 49%
    Show more